Weather History for Jackson, MS

Change the Weather History Date:

Sunday, January 13, 2013

  Actual Average Record
Temperature  
Mean Temperature 59 °F 45 °F  
Max Temperature 75 °F 56 °F 82 °F (1972)
Min Temperature 42 °F 35 °F 4 °F (1918)
Degree Days  
Heating Degree Days 6 20  
Month to date heating degree days 183 260  
Since 1 July heating degree days 1044 1210  
Cooling Degree Days 0 0  
Month to date cooling degree days 8 0  
Year to date cooling degree days 8 0  
Growing Degree Days 8 (Base 50)    
Moisture  
Dew Point 51 °F    
Average Humidity 84    
Maximum Humidity 93    
Minimum Humidity 74    
Precipitation  
Precipitation 0.82 in 0.15 in 1.97 in (1947)
Month to date precipitation 3.96 1.93  
Year to date precipitation 3.96 1.93  
Sea Level Pressure  
Sea Level Pressure 29.98 in    
Wind  
Wind Speed 15 mph (NW)    
Max Wind Speed 31 mph    
Max Gust Speed 40 mph    
Visibility 8 miles    
Events Rain , Thunderstorm    
T = Trace of Precipitation, MM = Missing Value Source: NWS Daily Summary

Daily Weather History Graph

Daily Weather History Graph

Search for Another Location

Airport:

Trip Planner

Search our weather history database for the weather conditions in past years. The results will help you decide how hot, cold, wet, or windy it might be!

Date:

Astronomy

Jan. 13, 2013 Rise Set
Actual Time 7:02 AM CST 5:16 PM CST
Civil Twilight 6:35 AM CST 5:43 PM CST
Nautical Twilight 6:05 AM CST 6:13 PM CST
Astronomical Twilight 5:35 AM CST 6:42 PM CST
Moon 8:10 AM CST (1/13) 7:43 PM CST (1/13)
Length of Visible Light 11h 07m
Length of Day
10h 14m
Waxing Crescent, 5% of the Moon is Illuminated
Jan 13
Waxing Crescent
Jan 18
First Quarter
Jan 26
Full
Feb 3
Last Quarter
Feb 10
New

Hourly Weather History & Observations

Time (CST) Temp. Windchill Dew Point Humidity Pressure Visibility Wind Dir Wind Speed Gust Speed Precip Events Conditions
12:54 AM 70.0 °F - 64.9 °F 84% 29.83 in 10.0 mi South 20.7 mph 26.5 mph N/A   Overcast
1:54 AM 71.1 °F - 64.9 °F 81% 29.79 in 10.0 mi SSE 26.5 mph 36.8 mph N/A   Overcast
2:54 AM 71.1 °F - 64.0 °F 78% 29.83 in 10.0 mi South 20.7 mph 28.8 mph N/A   Overcast
3:54 AM 71.1 °F - 64.0 °F 78% 29.85 in 10.0 mi South 12.7 mph 21.9 mph N/A   Overcast
4:19 AM 71.6 °F - 64.4 °F 78% 29.86 in 10.0 mi South 10.4 mph - N/A   Overcast
4:54 AM 70.0 °F - 64.9 °F 84% 29.86 in 10.0 mi South 8.1 mph - N/A   Overcast
5:54 AM 70.0 °F - 64.9 °F 84% 29.86 in 10.0 mi SSE 12.7 mph - N/A   Overcast
6:54 AM 70.0 °F - 64.0 °F 81% 29.86 in 10.0 mi SSE 19.6 mph 26.5 mph N/A   Scattered Clouds
7:54 AM 69.1 °F - 64.0 °F 84% 29.89 in 10.0 mi South 8.1 mph - N/A   Mostly Cloudy
8:54 AM 70.0 °F - 64.0 °F 81% 29.87 in 10.0 mi SSE 13.8 mph 23.0 mph N/A   Mostly Cloudy
9:54 AM 72.0 °F - 64.9 °F 78% 29.89 in 10.0 mi South 15.0 mph - N/A   Partly Cloudy
10:33 AM 73.4 °F - 64.4 °F 73% 29.91 in 10.0 mi South 19.6 mph 25.3 mph N/A   Mostly Cloudy
10:54 AM 73.0 °F - 66.0 °F 79% 29.88 in 10.0 mi South 19.6 mph 26.5 mph N/A   Mostly Cloudy
11:54 AM 75.0 °F - 66.0 °F 73% 29.86 in 10.0 mi SSW 15.0 mph - N/A   Mostly Cloudy
12:35 PM 62.6 °F - 55.4 °F 77% 29.88 in 10.0 mi NW 15.0 mph 23.0 mph N/A   Overcast
12:49 PM 57.2 °F - 53.6 °F 88% 29.90 in 9.0 mi NNW 15.0 mph 21.9 mph N/A   Overcast
12:54 PM 55.0 °F - 52.0 °F 89% 29.88 in 3.0 mi NNW 10.4 mph 20.7 mph 0.00 in Rain Heavy Rain
1:07 PM 53.6 °F - 51.8 °F 94% 29.90 in 4.0 mi NNW 12.7 mph 19.6 mph 0.05 in Rain Light Rain
1:54 PM 50.0 °F - 48.0 °F 93% 29.92 in 10.0 mi NNW 18.4 mph 23.0 mph 0.08 in   Overcast
2:24 PM 48.2 °F - 46.4 °F 93% 30.01 in 1.8 mi WSW 16.1 mph 24.2 mph 0.06 in Rain Heavy Rain
2:33 PM 48.2 °F - 46.4 °F 93% 29.96 in 0.8 mi NNW 9.2 mph - 0.27 in Rain , Thunderstorm Heavy Thunderstorms and Rain
2:37 PM 48.2 °F - 46.4 °F 93% 29.96 in 1.2 mi NNW 9.2 mph - 0.29 in Rain , Thunderstorm Heavy Thunderstorms and Rain
2:46 PM 48.2 °F - 46.4 °F 93% 29.99 in 3.0 mi WNW 9.2 mph - 0.35 in Rain , Thunderstorm Thunderstorms and Rain
2:48 PM 48.2 °F - 46.4 °F 93% 29.98 in 2.5 mi NW 9.2 mph - N/A Rain , Thunderstorm Thunderstorms and Rain
2:54 PM 46.9 °F - 46.0 °F 97% 30.01 in 1.0 mi West 9.2 mph - 0.39 in Rain , Thunderstorm Heavy Thunderstorms and Rain
3:03 PM 46.4 °F 40.4 °F 44.6 °F 93% 29.99 in 2.0 mi NW 13.8 mph 20.7 mph 0.10 in Rain , Thunderstorm Thunderstorms and Rain
3:12 PM 46.4 °F 41.1 °F 44.6 °F 93% 30.00 in 6.0 mi NW 11.5 mph 23.0 mph 0.12 in Rain , Thunderstorm Light Thunderstorms and Rain
3:15 PM 46.4 °F 41.1 °F 44.6 °F 93% 30.00 in 7.0 mi NW 11.5 mph 23.0 mph 0.12 in Rain Light Rain
3:22 PM 46.4 °F 41.9 °F 44.6 °F 93% 30.02 in 10.0 mi NW 9.2 mph 16.1 mph 0.12 in Rain Light Rain
3:29 PM 46.4 °F 41.9 °F 44.6 °F 93% 30.02 in 10.0 mi NW 9.2 mph - 0.12 in   Overcast
3:46 PM 46.4 °F 40.4 °F 44.6 °F 93% 30.04 in 4.0 mi NNW 13.8 mph 20.7 mph 0.13 in Rain Rain
3:54 PM 46.0 °F 40.2 °F 44.1 °F 93% 30.05 in 4.0 mi NW 12.7 mph - 0.15 in Rain Light Rain
4:11 PM 46.4 °F 40.4 °F 44.6 °F 93% 30.03 in 4.0 mi North 13.8 mph - 0.06 in Rain Rain
4:21 PM 46.4 °F 41.5 °F 44.6 °F 93% 30.03 in 6.0 mi North 10.4 mph - 0.08 in Rain Light Rain
4:33 PM 46.4 °F 41.9 °F 44.6 °F 93% 30.04 in 2.5 mi NNW 9.2 mph 18.4 mph 0.11 in Rain Rain
4:43 PM 46.4 °F 41.1 °F 44.6 °F 93% 30.04 in 2.0 mi North 11.5 mph - 0.17 in Rain Heavy Rain
4:54 PM 46.0 °F 41.0 °F 44.1 °F 93% 30.05 in 5.0 mi NNW 10.4 mph - 0.20 in Rain Light Rain
5:40 PM 46.4 °F 40.1 °F 42.8 °F 87% 30.07 in 6.0 mi NNW 15.0 mph 19.6 mph 0.00 in   Overcast
5:54 PM 45.0 °F 38.5 °F 42.1 °F 90% 30.08 in 10.0 mi NNW 13.8 mph 20.7 mph 0.00 in   Overcast
6:54 PM 44.1 °F 37.1 °F 41.0 °F 89% 30.12 in 10.0 mi North 15.0 mph 20.7 mph N/A   Overcast
7:54 PM 43.0 °F 35.7 °F 39.9 °F 89% 30.14 in 10.0 mi North 15.0 mph - N/A   Overcast
8:02 PM 42.8 °F 37.0 °F 39.2 °F 87% 30.15 in 10.0 mi North 10.4 mph - N/A   Overcast
8:54 PM 42.1 °F 34.9 °F 39.0 °F 89% 30.14 in 10.0 mi NNW 13.8 mph - N/A   Overcast
9:54 PM 42.1 °F 34.9 °F 39.0 °F 89% 30.13 in 10.0 mi North 13.8 mph 19.6 mph N/A   Overcast
10:51 PM 42.8 °F 35.4 °F 37.4 °F 81% 30.15 in 10.0 mi North 15.0 mph - N/A   Overcast
10:54 PM 42.1 °F 35.2 °F 37.9 °F 85% 30.14 in 10.0 mi North 12.7 mph - N/A   Overcast
11:54 PM 42.1 °F 35.7 °F 37.9 °F 85% 30.16 in 10.0 mi North 11.5 mph 38.0 mph N/A   Overcast